Flag for Germany Weather past 2 weeks in Lehrte, Lower Saxony, Germany

Now
65 °F

Drizzle. Low clouds.


Feels Like: 65 °F
Forecast: 54 / 61 °F
Wind: 3 mph from West

Location: Hannover

Current Time: Sep 20, 2014 at 12:24:01 PM

Latest Report: Sep 20, 2014 at 12:00 PM


Visibility: 1 mi

Pressure: 29.94 "Hg

Humidity: 97%

Dew point: 64 °F

Location of LehrteLocation

Historic Weather in Lehrte — Graph

°F

Lehrte temperature yesterday

Maximum temperature yesterday: 72 °F (at 3:00 PM)
Minimum temperature yesterday: 58 °F (at 2:00 AM)
Average temperature yesterday: 65 °F

Past Weeks' High & Low Weather Summary

 TemperatureHumidityPressure
High78 °F (Sep 6, 2:00 PM)100% (Sep 6, 3:00 AM)30.24 "Hg (Sep 6, 3:00 AM)
Low48 °F (Sep 12, 3:00 AM)49% (Sep 17, 6:00 PM)29.87 "Hg (Sep 6, 4:00 PM)
Average62 °F87%30.04 "Hg
* Reported Sep 5 12:00 Noon — Sep 20 11:00 AM, Lehrte, Weather by CustomWeather, © 2014

Note: Actual official high and low records may vary slightly from our data, if they occured in-between our weather recording intervals... More about our weather records

Advertising

Lehrte weather history for previous 24 hours

 ConditionsComfort  
Time TempWeatherWind HumidityBarometerVisibility
11:00 AM
Sep 20
64 °FFog.3 mph100%29.93 "Hg1 mi
10:00 AM64 °FFog.2 mph100%29.93 "Hg1 mi
9:00 AM64 °FFog.2 mph100%29.92 "Hg1 mi
8:00 AM63 °FFog.2 mph99%29.92 "Hg2 mi
7:00 AM63 °FFog.1 mph99%29.91 "Hg2 mi
6:00 AM63 °FOvercast.1 mph100%29.91 "Hg11 mi
5:00 AM63 °FOvercast.1 mph100%29.91 "Hg12 mi
4:00 AM63 °FPassing clouds.1 mph99%29.91 "Hg12 mi
3:00 AM64 °FOvercast.2 mph98%29.91 "Hg12 mi
2:00 AM64 °FOvercast.1 mph97%29.91 "Hg12 mi
1:00 AM64 °FOvercast.2 mph96%29.92 "Hg12 mi
12:00 AM64 °FPassing clouds.2 mph98%29.92 "Hg12 mi
10:00 PM
Sep 19
65 °FThunderstorms. Overcast.2 mph96%29.91 "Hg12 mi
9:00 PM67 °FThundershowers. Overcast.2 mph93%29.91 "Hg9 mi
8:00 PM68 °FOvercast.2 mph83%29.90 "Hg9 mi
7:00 PM69 °FOvercast.2 mph83%29.89 "Hg16 mi
6:00 PM71 °FPartly sunny.5 mph76%29.88 "Hg19 mi
4:00 PM71 °FOvercast.3 mph74%29.90 "Hg19 mi
3:00 PM72 °FPartly sunny.5 mph69%29.89 "Hg25 mi
2:00 PM72 °FPartly sunny.5 mph69%29.90 "Hg25 mi
1:00 PM68 °FOvercast.5 mph78%29.91 "Hg22 mi
12:00 PM66 °FOvercast.3 mph84%29.92 "Hg19 mi
Weather by CustomWeather, © 2014

See weather overviewHow to use our weather pages